TimeEDT,TemperatureF,Dew PointF,Humidity,Sea Level PressureIn,VisibilityMPH,Wind Direction,Wind SpeedMPH,Gust SpeedMPH,PrecipitationIn,Events,Conditions,WindDirDegrees,DateUTC
12:15 AM,69.8,69.8,100,29.88,7.0,South,6.9,-,N/A,,Overcast,180,2013-06-27 04:15:00
12:35 AM,69.8,69.8,100,29.88,7.0,South,5.8,-,N/A,,Overcast,190,2013-06-27 04:35:00
12:55 AM,69.8,69.8,100,29.88,7.0,South,5.8,-,N/A,,Overcast,190,2013-06-27 04:55:00
1:15 AM,69.8,69.8,100,29.87,7.0,South,3.5,-,N/A,,Overcast,170,2013-06-27 05:15:00
1:35 AM,69.8,69.8,100,29.86,7.0,South,3.5,-,N/A,,Overcast,170,2013-06-27 05:35:00
2:15 AM,69.8,69.8,100,29.86,5.0,South,5.8,-,N/A,,Overcast,180,2013-06-27 06:15:00
2:35 AM,69.8,69.8,100,29.86,5.0,South,3.5,-,N/A,,Overcast,190,2013-06-27 06:35:00
2:55 AM,69.8,69.8,100,29.85,5.0,Calm,Calm,-,N/A,,Overcast,0,2013-06-27 06:55:00
3:15 AM,69.8,69.8,100,29.84,3.0,Calm,Calm,-,N/A,,Overcast,0,2013-06-27 07:15:00
3:35 AM,69.8,69.8,100,29.83,2.0,Calm,Calm,-,N/A,,Overcast,0,2013-06-27 07:35:00
3:55 AM,68.0,68.0,100,29.83,0.5,Calm,Calm,-,N/A,Fog,Fog,0,2013-06-27 07:55:00
4:15 AM,68.0,68.0,100,29.83,0.2,SSE,6.9,-,N/A,Fog,Fog,160,2013-06-27 08:15:00
4:35 AM,68.0,68.0,100,29.83,0.5,South,3.5,-,N/A,Fog,Fog,170,2013-06-27 08:35:00
4:55 AM,68.0,68.0,100,29.83,0.5,Calm,Calm,-,N/A,Fog,Fog,0,2013-06-27 08:55:00
5:15 AM,68.0,68.0,100,29.83,1.8,Calm,Calm,-,N/A,,Overcast,0,2013-06-27 09:15:00
5:35 AM,68.0,68.0,100,29.83,3.0,SSE,4.6,-,N/A,,Overcast,160,2013-06-27 09:35:00
5:55 AM,68.0,68.0,100,29.82,4.0,Calm,Calm,-,N/A,,Overcast,0,2013-06-27 09:55:00
6:15 AM,68.0,68.0,100,29.81,5.0,Calm,Calm,-,N/A,,Overcast,0,2013-06-27 10:15:00
6:35 AM,68.0,68.0,100,29.81,7.0,Calm,Calm,-,N/A,,Overcast,0,2013-06-27 10:35:00
6:55 AM,68.0,68.0,100,29.82,5.0,South,3.5,-,N/A,,Overcast,170,2013-06-27 10:55:00
7:15 AM,68.0,68.0,100,29.82,7.0,SSE,4.6,-,N/A,,Overcast,150,2013-06-27 11:15:00
7:35 AM,69.8,69.8,100,29.82,10.0,South,3.5,-,N/A,,Overcast,170,2013-06-27 11:35:00
7:55 AM,69.8,69.8,100,29.82,10.0,South,5.8,-,N/A,,Overcast,170,2013-06-27 11:55:00
8:15 AM,71.6,71.6,100,29.81,10.0,South,6.9,-,N/A,,Mostly Cloudy,170,2013-06-27 12:15:00
8:35 AM,71.6,69.8,94,29.81,10.0,SSE,3.5,-,N/A,,Mostly Cloudy,160,2013-06-27 12:35:00
8:55 AM,73.4,71.6,94,29.80,10.0,ESE,5.8,-,N/A,,Scattered Clouds,120,2013-06-27 12:55:00
9:15 AM,75.2,71.6,89,29.79,10.0,SSE,5.8,-,N/A,,Mostly Cloudy,160,2013-06-27 13:15:00
9:35 AM,75.2,71.6,89,29.79,10.0,SSE,4.6,-,N/A,,Mostly Cloudy,160,2013-06-27 13:35:00
9:55 AM,73.4,71.6,94,29.78,10.0,SSE,4.6,-,N/A,,Scattered Clouds,160,2013-06-27 13:55:00
10:15 AM,75.2,71.6,89,29.78,10.0,ESE,6.9,-,N/A,,Mostly Cloudy,120,2013-06-27 14:15:00
10:35 AM,73.4,71.6,94,29.78,10.0,SSE,8.1,-,N/A,,Overcast,150,2013-06-27 14:35:00
10:55 AM,71.6,71.6,100,29.78,10.0,SSE,9.2,-,N/A,,Overcast,160,2013-06-27 14:55:00
11:15 AM,71.6,71.6,100,29.78,7.0,SSE,6.9,-,N/A,,Overcast,160,2013-06-27 15:15:00
11:35 AM,71.6,71.6,100,29.78,3.0,SSE,6.9,-,N/A,,Overcast,160,2013-06-27 15:35:00
11:55 AM,71.6,71.6,100,29.77,2.0,SSE,5.8,-,N/A,,Light Drizzle,160,2013-06-27 15:55:00
12:15 PM,71.6,71.6,100,29.76,4.0,South,4.6,-,N/A,,Overcast,170,2013-06-27 16:15:00
12:35 PM,71.6,71.6,100,29.76,3.0,South,5.8,-,N/A,,Overcast,170,2013-06-27 16:35:00
12:55 PM,71.6,71.6,100,29.75,1.8,South,4.6,-,N/A,Rain,Light Rain,190,2013-06-27 16:55:00
1:15 PM,71.6,71.6,100,29.75,2.5,South,4.6,-,N/A,Rain,Rain,170,2013-06-27 17:15:00
1:35 PM,71.6,71.6,100,29.74,7.0,South,4.6,-,N/A,,Drizzle,190,2013-06-27 17:35:00
1:55 PM,71.6,71.6,100,29.73,5.0,South,5.8,-,N/A,,Light Drizzle,180,2013-06-27 17:55:00
2:15 PM,73.4,73.4,100,29.73,10.0,South,8.1,-,N/A,,Overcast,190,2013-06-27 18:15:00
2:35 PM,77.0,75.2,94,29.73,10.0,SSW,9.2,-,N/A,,Overcast,210,2013-06-27 18:35:00
2:55 PM,77.0,73.4,89,29.72,10.0,South,5.8,-,N/A,,Overcast,180,2013-06-27 18:55:00
3:15 PM,78.8,73.4,83,29.72,10.0,SSW,6.9,-,N/A,,Overcast,210,2013-06-27 19:15:00
3:35 PM,82.4,73.4,74,29.71,10.0,SSW,8.1,-,N/A,,Mostly Cloudy,210,2013-06-27 19:35:00
3:55 PM,82.4,73.4,74,29.70,10.0,SSW,10.4,-,N/A,,Mostly Cloudy,200,2013-06-27 19:55:00
4:15 PM,86.0,71.6,62,29.68,10.0,SSW,8.1,-,N/A,,Scattered Clouds,200,2013-06-27 20:15:00
4:35 PM,86.0,71.6,62,29.68,10.0,SSW,10.4,16.1,N/A,,Scattered Clouds,200,2013-06-27 20:35:00
4:55 PM,84.2,73.4,70,29.68,10.0,South,11.5,-,N/A,,Scattered Clouds,170,2013-06-27 20:55:00
5:15 PM,82.4,73.4,74,29.67,10.0,South,10.4,-,N/A,,Overcast,190,2013-06-27 21:15:00
5:35 PM,82.4,73.4,74,29.67,10.0,South,11.5,-,N/A,,Mostly Cloudy,180,2013-06-27 21:35:00
5:55 PM,80.6,73.4,79,29.68,10.0,South,10.4,16.1,N/A,,Mostly Cloudy,170,2013-06-27 21:55:00
6:15 PM,80.6,73.4,79,29.68,10.0,SSE,9.2,-,N/A,,Scattered Clouds,160,2013-06-27 22:15:00
6:35 PM,80.6,73.4,79,29.68,10.0,SSE,10.4,17.3,N/A,,Scattered Clouds,160,2013-06-27 22:35:00
6:55 PM,80.6,71.6,74,29.68,10.0,SSE,12.7,-,N/A,,Scattered Clouds,160,2013-06-27 22:55:00
7:15 PM,80.6,71.6,74,29.68,10.0,South,11.5,16.1,N/A,,Clear,170,2013-06-27 23:15:00
7:35 PM,78.8,71.6,78,29.69,10.0,SSE,8.1,-,N/A,,Scattered Clouds,160,2013-06-27 23:35:00
7:55 PM,78.8,71.6,78,29.68,10.0,SSE,5.8,-,N/A,,Mostly Cloudy,160,2013-06-27 23:55:00
8:15 PM,78.8,71.6,78,29.68,10.0,South,5.8,-,N/A,,Overcast,170,2013-06-28 00:15:00
8:35 PM,78.8,71.6,78,29.69,10.0,SSE,4.6,-,N/A,,Mostly Cloudy,160,2013-06-28 00:35:00
8:55 PM,77.0,71.6,83,29.69,10.0,South,4.6,-,N/A,,Mostly Cloudy,180,2013-06-28 00:55:00
9:15 PM,77.0,71.6,83,29.69,10.0,South,5.8,-,N/A,,Mostly Cloudy,170,2013-06-28 01:15:00
9:35 PM,77.0,71.6,83,29.70,10.0,South,3.5,-,N/A,,Overcast,190,2013-06-28 01:35:00
9:55 PM,77.0,71.6,83,29.70,10.0,South,4.6,-,N/A,,Overcast,190,2013-06-28 01:55:00
10:15 PM,77.0,71.6,83,29.70,10.0,South,4.6,-,N/A,,Mostly Cloudy,170,2013-06-28 02:15:00
10:35 PM,75.2,71.6,89,29.69,10.0,SSW,3.5,-,N/A,,Scattered Clouds,200,2013-06-28 02:35:00
10:55 PM,73.4,71.6,94,29.70,10.0,SW,4.6,-,N/A,,Clear,220,2013-06-28 02:55:00
11:15 PM,73.4,71.6,94,29.70,10.0,SSW,3.5,-,N/A,,Clear,200,2013-06-28 03:15:00
11:35 PM,71.6,71.6,100,29.70,10.0,Calm,Calm,-,N/A,,Scattered Clouds,0,2013-06-28 03:35:00
11:55 PM,71.6,71.6,100,29.70,10.0,SSE,3.5,-,N/A,,Scattered Clouds,150,2013-06-28 03:55:00